Location: Clair
(33.8067°N, 117.9845°W)
Time: 17:22:05
(UTC+00:00)

OAO 2 Rocket - Pass Details

Date: 14 February 2026
Orbit: 668 x 734 km, 35.0° (Epoch: 8 March)

Event Time Altitude Azimuth Distance (km) Brightness Sun altitude
Exits shadow 12:38:19 46° 187° (S) 947 3.8 -25.3°
Drops below altitude 10° 12:42:50 10° 130° (SE) 2,197 6.5 -24.3°
Sets 12:45:21 0° 124° (SE) 3,124 7.5 -23.8°
